sat.trackr.live / text

‹ back to catalog

STARLINK-2571

NORAD 48401 · 2021-038BA

PAYLOAD ACTIVE UNKNOWN

§ Identity

Operator
Country
US
Launch date
2021-05-04
Launch site
AFETR
Launch vehicle
Mass (kg)
RCS (m²)

Purposes: comms

External: N2YO · Heavens-Above · Gunter

§ Orbital elements

Epoch: 2026-09-19T04:28:56.166816Z

Period
94.01 min
Inclination
53.1603°
Eccentricity
0.0001233
Mean motion
15.31701323 rev/d
Perigee alt
469.9 km
Apogee alt
471.6 km
Semi-major
6,848.9 km
B*
-2.8279e-5
RAAN
152.3932°
Arg perigee
85.8401°
Mean anomaly
274.2741°
Rev number
29,708

§ Raw data

STARLINK-25711 48401U 21038BA  26262.18676119 -.00001243  00000+0 -28279-4 0  99912 48401  53.1603 152.3932 0001233  85.8401 274.2741 15.31701323297086

JSON: /api/v1/satellites/48401 · /tle

For live sub-satellite position, see the globe view (requires WebGL).

§ Visibility from observer

Set your observer location to see the next 7 days of passes ≥ 10°. The values pass through the URL so the page stays shareable.

No JS? Fill the form by hand. The geolocation button needs JavaScript.